Weather History for SPJR - December, 2013

Change the Weather History Date:

Monday, December 30, 2013

  Actual Average Record
Temperature  
Mean Temperature 58 °F -  
Max Temperature 73 °F - - ()
Min Temperature 44 °F - - ()
Degree Days  
Heating Degree Days 6    
Growing Degree Days 8 (Base 50)    
Moisture  
Dew Point 50 °F    
Average Humidity 65    
Maximum Humidity 100    
Minimum Humidity 41    
Precipitation  
Precipitation 0.00 in - - ()
Sea Level Pressure  
Sea Level Pressure 30.29 in    
Wind  
Wind Speed 3 mph ()    
Max Wind Speed 14 mph    
Max Gust Speed -    
Visibility 6.2 miles    
Events      
T = Trace of Precipitation, MM = Missing Value Source: Averaged Metar Reports

Daily Weather History Graph

Daily Weather History Graph

Search for Another Location

Airport or City:

Trip Planner

Search our weather history database for the weather conditions in past years. The results will help you decide how hot, cold, wet, or windy it might be!

Date:

Astronomy

Dec. 30, 2013 Rise Set
Actual Time 6:00 AM PET 6:32 PM PET
Civil Twilight 5:37 AM PET 6:55 PM PET
Nautical Twilight 5:11 AM PET 7:22 PM PET
Astronomical Twilight 4:44 AM PET 7:49 PM PET
Moon 4:02 AM PET (12/30) 4:52 PM PET (12/30)
Length of Visible Light 13h 17m
Length of Day
12h 32m
Waning Crescent, 5% of the Moon is Illuminated
Dec 30
Waning Crescent
Jan 1
New
Jan 7
First Quarter
Jan 15
Full
Jan 24
Last Quarter

Hourly Weather History & Observations

Time (PET) Temp. Dew Point Humidity Pressure Visibility Wind Dir Wind Speed Gust Speed Precip Events Conditions
4:00 AM 45 °F 44 °F 93%  in 6 mi NW 2.3 mph - -   Clear
4:00 AM 44.6 °F 44.6 °F 100% 30.30 in - Variable 2.3 mph - N/A   Clear
5:00 AM 44.6 °F 44.6 °F 100% 30.30 in - Variable 2.3 mph - N/A   Clear
6:00 AM 44.6 °F 42.8 °F 93% 30.30 in - Calm Calm - N/A   Clear
6:30 AM 44.6 °F 42.8 °F 93% 30.33 in - Variable 2.3 mph - N/A   Clear
7:00 AM 47 °F 44 °F 86%  in 6 mi Calm Calm - -   Partly Cloudy
7:00 AM 46.4 °F 44.6 °F 93% 30.33 in - Calm Calm - N/A   Clear
7:30 AM 51.8 °F 46.4 °F 82% 30.36 in - Calm Calm - N/A   Clear
8:00 AM 57.2 °F 48.2 °F 72% 30.36 in - Calm Calm - N/A   Clear
8:30 AM 60.8 °F 48.2 °F 63% 30.36 in - Calm Calm - N/A   Clear
9:00 AM 62.6 °F 48.2 °F 59% 30.36 in - Variable 2.3 mph - N/A   Clear
9:30 AM 66.2 °F 50.0 °F 56% 30.36 in - South 3.5 mph - N/A   Clear
10:00 AM 67 °F 50 °F 45%  in 6 mi South 4.6 mph - -  
10:00 AM 66.2 °F 50.0 °F 56% 30.36 in 6.2 mi South 4.6 mph - N/A   Partly Cloudy
10:30 AM 66.2 °F 50.0 °F 56% 30.36 in 6.2 mi ESE 3.5 mph - N/A   Scattered Clouds
11:00 AM 69.8 °F 51.8 °F 53% 30.33 in 6.2 mi SSE 5.8 mph - N/A   Scattered Clouds
11:30 AM 69.8 °F 51.8 °F 53% 30.33 in 6.2 mi Variable 2.3 mph - N/A   Scattered Clouds
12:00 PM 71.6 °F 51.8 °F 50% 30.30 in 6.2 mi South 4.6 mph - N/A   Scattered Clouds
12:30 PM 69.8 °F 50.0 °F 49% 30.30 in 6.2 mi South 5.8 mph - N/A   Scattered Clouds
1:00 PM 71 °F 53 °F 41%  in 6 mi ESE 8.1 mph - -   Partly Cloudy
1:00 PM 71.6 °F 51.8 °F 50% 30.30 in 6.2 mi ESE 8.1 mph - N/A   Scattered Clouds
1:30 PM 69.8 °F 51.8 °F 53% 30.27 in 6.2 mi SE 10.4 mph - N/A   Scattered Clouds
2:00 PM 71.6 °F 53.6 °F 53% 30.27 in 6.2 mi ESE 13.8 mph - N/A   Scattered Clouds
2:30 PM 71.6 °F 53.6 °F 53% 30.24 in 6.2 mi ESE 11.5 mph - N/A   Mostly Cloudy
3:00 PM 73.4 °F 55.4 °F 53% 30.21 in 6.2 mi Variable 5.8 mph - N/A   Scattered Clouds
3:30 PM 73.4 °F 53.6 °F 50% 30.21 in 6.2 mi SE 6.9 mph - N/A   Scattered Clouds
4:00 PM 71 °F 56 °F 49%  in 6 mi South 9.2 mph - -   Partly Cloudy
4:00 PM 71.6 °F 55.4 °F 57% 30.21 in 6.2 mi South 9.2 mph - N/A   Scattered Clouds
4:30 PM 68.0 °F 53.6 °F 60% 30.21 in 6.2 mi SSE 6.9 mph - N/A   Scattered Clouds
5:00 PM 66.2 °F 53.6 °F 64% 30.21 in 6.2 mi South 8.1 mph - N/A   Scattered Clouds
5:30 PM 64.4 °F 55.4 °F 73% 30.21 in 6.2 mi SSE 6.9 mph - N/A   Scattered Clouds
6:00 PM 62.6 °F 55.4 °F 77% 30.21 in 6.2 mi SSE 5.8 mph - N/A   Scattered Clouds